Theta_e
294 295 296 299 299 301 302 305 309 325 329 328 326 325 324 325 324 323 322 323 324 323 323 322 320 320 319 318 316 314 309 306 306 305 304 305 305 305 305 305 305 306 307
291 292 294 295 296 297 299 301 302 307 316 328 328 327 326 327 325 325 323 323 322 323 322 322 321 320 319 318 317 313 308 307 305 304 301 303 305 302 303 304 303 303 304
289 290 291 292 294 295 297 298 299 302 307 315 328 327 327 325 324 324 323 322 323 322 323 322 321 320 320 318 318 314 310 307 304 304 306 300 299 298 299 300 301 301 300
288 289 289 290 292 293 295 297 297 299 303 307 320 323 323 321 323 324 324 323 322 322 322 322 321 321 321 320 318 316 314 313 306 304 303 303 301 300 300 299 298 298 298
288 288 289 291 291 292 292 295 296 297 300 303 307 315 323 324 323 324 323 323 321 321 322 322 322 320 320 320 320 317 314 313 312 308 303 305 300 299 299 301 302 297 297
289 290 290 291 290 291 291 292 294 296 298 301 303 306 313 322 321 322 322 321 321 321 321 322 322 322 321 320 319 318 314 314 313 310 308 306 303 302 300 299 302 304 305
288 289 289 289 290 290 290 291 293 294 297 299 300 303 306 312 320 321 322 321 320 319 320 320 321 321 321 321 320 318 316 315 312 312 310 310 310 310 305 305 305 303 304
288 289 289 289 289 290 290 291 292 293 295 296 297 301 304 308 318 321 321 321 321 321 322 321 321 321 321 321 320 319 317 316 313 312 311 311 310 311 309 307 304 303 304
288 288 289 289 288 289 289 290 291 292 293 294 296 299 303 305 308 320 321 321 322 321 321 321 320 320 320 320 320 319 317 317 315 314 312 312 312 310 310 310 310 307 304
287 288 288 288 288 289 289 290 290 290 292 294 296 299 302 305 308 312 321 321 321 321 320 320 320 320 320 320 320 319 319 318 317 316 314 312 312 312 310 310 310 309 307
285 285 287 288 287 288 288 288 289 289 290 293 296 299 301 305 310 313 320 321 321 321 321 321 320 320 320 320 319 318 319 318 317 316 315 314 314 312 312 311 308 308 308
284 284 285 287 286 286 287 287 287 288 289 292 294 296 298 300 306 307 309 312 309 309 308 309 306 304 304 306 309 314 315 315 313 311 312 312 313 313 313 312 310 308 309
283 283 285 285 285 285 286 286 287 287 288 290 291 293 294 295 296 299 301 304 304 303 302 300 298 298 297 298 300 303 303 303 302 302 302 301 300 299 298 300 300 304 307
280 280 284 284 284 285 284 285 285 287 288 288 289 289 291 293 294 295 296 297 298 297 296 295 294 293 292 293 294 297 297 297 297 297 296 295 294 293 293 295 295 296 296
277 275 281 282 283 283 283 285 285 286 287 287 287 287 289 290 291 292 292 292 292 293 292 291 291 291 291 291 291 292 293 292 292 292 292 292 289 289 291 292 292 292 292
278 277 277 277 277 281 283 283 282 285 285 285 285 286 287 286 286 288 289 289 289 289 289 288 289 289 290 291 290 290 290 290 289 289 290 290 289 290 290 290 291 291 289
283 280 279 277 276 278 281 282 282 284 284 284 284 285 285 285 285 285 285 286 285 285 285 286 286 287 288 290 290 289 289 289 289 288 288 288 288 288 289 290 290 289 290
283 282 280 279 279 278 278 281 282 282 282 282 283 284 284 284 284 283 283 283 283 283 283 283 284 285 286 288 288 288 288 288 288 287 287 286 286 288 288 288 287 288 288
282 281 280 279 278 278 279 280 280 280 281 281 281 282 283 282 282 282 282 282 282 282 281 281 282 282 284 287 287 286 285 285 286 286 286 286 286 288 288 286 285 286 286
282 281 281 279 278 277 279 280 279 279 278 280 281 282 283 282 281 281 281 281 281 281 281 281 281 282 283 286 286 285 284 283 284 285 285 285 286 287 287 285 284 283 285
281 280 279 278 276 276 279 278 277 276 277 279 280 280 281 281 281 281 281 280 280 280 279 279 280 280 282 283 285 286 283 282 282 283 282 284 286 286 286 286 284 284 284
280 280 278 277 275 275 278 276 275 274 275 278 279 279 279 281 280 280 280 279 279 278 278 277 278 279 280 283 283 284 283 283 280 279 280 282 284 284 284 284 284 283 283
279 279 276 274 271 269 272 273 271 271 274 280 279 277 277 279 280 279 279 278 278 278 277 277 277 278 279 280 282 282 282 281 278 279 280 280 280 281 280 281 282 278 279
276 273 273 271 270 267 270 269 268 268 277 278 279 279 277 275 276 278 279 279 278 276 276 276 276 277 278 279 280 279 279 278 276 275 275 277 277 277 277 276 277 278 279
272 272 273 273 272 268 266 263 265 267 278 279 279 279 279 276 273 275 277 278 280 279 277 277 277 276 276 278 280 280 278 277 275 269 272 271 271 271 272 273 273 275 276
272 271 274 269 270 266 265 262 260 268 277 278 278 278 278 277 273 271 272 279 280 280 280 279 279 278 280 280 280 279 279 277 276 267 267 267 267 268 268 269 270 273 272
Wind_Speed
14 15 15 14 15 16 16 15 13 8 8 6 4 8 11 8 8 7 10 11 10 10 10 7 8 8 8 9 11 7 6 3 3 2 2 4 9 9 8 8 7 8 8
17 17 16 15 15 13 14 14 14 13 10 7 6 5 2 5 7 7 9 11 12 12 11 10 9 10 8 9 9 7 3 2 5 3 1 3 3 4 8 7 8 10 7
17 17 17 15 14 14 13 14 14 13 11 14 4 5 4 3 5 6 7 9 10 11 13 13 10 11 10 9 11 10 10 6 5 6 3 2 5 3 1 4 7 9 7
14 14 16 15 14 14 13 12 13 13 11 12 7 5 6 5 4 7 7 8 12 12 12 12 11 11 10 11 11 11 9 7 7 3 5 3 3 3 4 2 2 5 8
13 14 15 15 14 13 13 12 12 12 13 12 9 7 9 6 5 6 10 12 11 12 12 11 11 10 9 11 12 12 13 9 6 6 4 8 4 2 4 8 3 3 7
16 15 14 14 14 13 13 13 13 13 12 11 11 9 11 7 5 7 7 6 6 9 13 14 12 11 11 11 11 12 13 11 11 7 8 7 6 7 8 9 10 8 5
15 15 16 15 16 17 15 13 13 13 12 12 11 10 9 10 10 10 8 8 6 6 10 12 12 11 11 11 10 10 11 12 12 12 10 9 10 6 5 7 9 7 3
14 14 15 14 15 15 15 14 14 15 13 13 13 10 10 5 6 9 7 7 8 9 9 11 11 12 11 11 10 8 9 11 11 14 12 10 10 9 9 9 7 8 8
13 15 15 14 14 15 15 14 14 14 15 13 11 11 9 9 8 8 9 8 9 7 8 10 12 12 12 11 12 10 11 9 10 13 13 12 11 9 9 9 10 11 10
12 14 13 15 13 13 13 13 13 13 13 14 12 10 11 10 10 8 8 8 7 9 9 10 11 10 11 12 11 10 9 11 11 9 10 11 10 10 9 11 10 10 12
10 11 12 12 13 13 12 11 12 13 13 13 12 11 10 12 9 7 7 7 8 8 8 9 8 9 10 9 8 10 11 10 11 10 12 15 14 10 10 9 9 10 10
8 8 10 12 13 13 12 12 12 11 12 12 12 10 10 12 10 7 7 8 9 9 9 9 10 10 11 10 8 3 4 4 4 4 3 6 6 10 10 7 11 11 12
7 6 10 10 10 12 12 12 12 12 11 11 11 11 12 12 12 11 9 11 10 10 12 12 11 11 11 9 8 8 8 7 9 9 8 9 9 8 6 6 6 7 6
5 6 9 8 10 11 11 11 11 11 11 12 12 13 14 13 11 11 10 11 12 13 12 12 12 12 11 11 9 9 9 9 9 10 9 10 9 9 8 6 6 7 7
6 3 7 8 9 9 11 10 9 9 11 12 12 13 13 14 13 11 12 12 14 12 12 12 13 12 13 10 9 9 9 9 9 10 10 10 8 8 8 6 8 9 6
6 5 6 7 7 9 10 12 11 13 11 11 10 12 11 15 16 13 11 11 12 13 12 12 12 12 10 17 17 10 9 10 11 8 8 7 6 9 12 12 11 8 8
5 4 4 5 5 6 8 9 9 8 10 9 10 12 12 15 13 11 11 12 11 12 13 11 11 13 12 20 16 14 9 8 9 8 8 7 7 8 9 10 10 7 8
5 3 2 4 5 4 5 5 6 8 9 9 12 12 13 11 7 9 9 9 9 12 10 10 10 12 12 21 19 16 9 7 8 9 10 9 9 12 11 10 11 12 10
5 3 1 2 3 4 4 4 5 6 9 11 12 11 11 10 9 10 9 9 8 10 10 9 11 11 11 21 20 11 8 7 8 7 9 9 8 14 17 8 10 11 10
5 4 4 2 2 3 3 4 6 7 8 8 9 8 8 8 8 9 9 8 8 9 6 9 10 13 10 21 21 13 6 8 6 6 7 14 15 18 19 8 8 10 11
7 5 5 4 3 2 1 5 4 7 5 4 5 6 8 9 7 6 6 6 7 7 8 9 8 9 10 14 21 21 8 7 7 8 7 7 16 17 18 17 11 11 12
7 7 6 6 4 2 2 5 5 1 2 3 6 6 6 5 5 6 7 8 7 8 9 8 6 5 7 15 18 19 17 13 6 7 6 6 16 17 17 13 19 18 13
8 6 6 5 3 2 1 4 2 1 3 6 5 5 6 6 6 6 6 6 7 6 6 6 7 7 6 6 17 17 16 14 6 5 9 14 17 17 12 18 20 11 9
7 4 5 5 5 2 1 1 0 3 4 6 6 6 6 6 7 6 5 7 7 6 6 6 6 6 8 8 7 7 7 9 7 8 7 11 13 15 12 9 12 8 8
5 6 7 6 6 6 5 4 2 3 4 4 3 3 3 4 4 3 3 4 7 6 5 6 5 5 6 7 10 10 6 4 8 2 6 8 8 10 9 9 9 8 8
6 6 7 4 5 5 5 3 3 4 5 4 3 3 3 2 3 2 3 9 8 10 10 8 4 3 8 12 10 11 15 15 12 5 6 7 6 7 7 8 8 7 9
Wind_Direction
352 5 7 9 10 13 7 2 357 317 209 199 197 212 197 193 186 185 196 194 194 189 188 193 188 187 190 193 189 182 183 187 166 107 265 255 244 242 238 235 238 240 238
359 1 3 4 9 4 359 355 351 346 333 206 205 189 219 193 196 190 191 207 198 191 190 193 195 192 191 196 191 186 160 157 182 134 110 294 287 251 242 238 236 239 235
352 353 356 359 354 356 355 349 344 341 341 339 207 199 163 175 182 189 190 199 205 201 200 201 196 192 192 195 194 194 183 184 191 188 159 199 245 311 209 237 241 242 240
357 352 351 353 352 348 341 341 341 340 341 344 318 204 191 193 195 195 186 190 202 204 206 207 206 204 197 200 198 197 206 187 187 207 243 222 155 223 301 225 239 232 237
357 351 352 349 348 346 340 337 334 339 340 339 341 328 214 218 187 186 195 196 192 197 199 213 214 210 212 215 204 196 202 208 196 194 158 221 216 216 242 284 259 239 225
357 357 354 348 347 345 343 338 336 337 337 339 337 336 323 217 195 196 199 196 193 204 207 203 209 213 213 217 214 212 206 206 215 203 200 187 181 201 205 233 256 250 240
360 353 352 351 352 348 343 336 336 335 336 333 330 325 317 311 210 214 205 190 193 199 202 205 204 215 217 219 217 217 222 215 213 209 215 220 228 214 206 228 258 248 243
2 352 350 346 344 341 339 335 334 331 332 329 319 313 304 291 271 216 212 201 205 213 201 210 218 217 213 213 214 216 217 220 223 227 224 227 226 222 217 226 220 261 246
350 350 349 351 343 340 339 336 333 331 329 323 317 312 304 295 282 253 205 203 204 197 190 199 211 216 215 216 217 218 218 217 218 227 225 224 229 224 229 230 232 243 263
347 346 349 350 344 342 336 338 339 334 330 329 324 315 304 293 272 277 222 202 199 188 197 199 211 215 219 226 225 225 220 220 230 229 228 228 231 228 223 228 231 237 251
338 338 345 346 342 343 344 341 342 342 342 337 331 329 329 318 250 244 245 195 196 199 199 204 208 215 223 223 223 220 231 239 238 221 223 233 230 230 234 225 227 234 236
325 325 338 346 341 340 346 348 347 348 347 344 345 352 3 4 19 63 55 81 81 64 67 56 64 65 55 39 30 0 350 314 326 15 347 318 300 257 252 243 240 233 235
319 345 2 346 340 342 344 348 350 349 356 359 3 5 15 22 24 22 36 61 70 73 66 66 61 52 51 42 37 36 53 58 65 38 23 20 9 357 359 349 4 342 318
331 351 356 348 342 348 346 346 350 349 356 13 14 19 19 16 27 35 35 53 59 64 68 66 63 54 44 39 29 45 45 49 40 44 43 37 28 10 1 359 356 340 327
328 318 346 349 341 347 351 346 357 1 13 19 23 24 26 24 24 29 43 55 57 58 60 64 62 55 48 33 28 47 48 50 48 41 34 35 19 2 10 3 352 338 329
331 333 347 334 333 352 347 354 357 11 16 14 17 29 32 39 22 20 30 54 59 63 58 56 57 54 47 35 43 55 61 52 43 30 30 23 9 6 3 3 351 334 330
285 312 313 299 337 341 338 349 346 4 23 18 23 37 33 45 26 19 21 45 55 68 61 54 50 52 42 33 38 35 45 51 42 28 23 23 14 2 350 339 332 335 333
222 238 344 328 345 327 335 333 347 15 31 22 31 29 44 38 23 39 25 35 53 61 60 51 47 49 42 35 39 36 43 41 39 34 30 27 9 6 0 354 353 352 348
179 174 192 275 308 332 328 11 13 29 32 30 29 21 36 36 26 36 26 23 45 55 56 49 46 43 36 37 41 39 43 39 41 34 29 20 14 12 15 13 0 353 352
169 180 202 229 282 334 344 40 33 51 38 36 34 22 28 40 35 28 32 23 38 49 53 59 50 43 35 35 37 39 27 36 37 32 28 21 22 22 22 20 4 357 345
172 172 194 207 236 294 103 79 62 45 16 4 44 43 43 45 30 39 35 36 45 50 46 53 47 36 21 29 34 35 27 25 21 22 10 8 16 21 23 24 14 3 347
179 187 197 205 196 271 147 105 91 11 36 35 50 51 50 44 40 43 39 34 34 39 37 33 36 28 16 26 30 34 36 31 37 22 357 359 23 24 24 21 14 14 8
194 190 197 205 223 250 122 120 204 335 88 84 66 57 47 39 37 48 44 45 34 41 38 36 28 19 5 11 23 23 27 32 44 30 28 31 30 25 21 17 15 11 15
197 171 177 219 243 202 287 48 125 32 78 72 61 52 48 34 31 36 45 53 42 32 35 36 29 14 15 10 7 7 6 19 35 24 27 36 33 32 18 11 11 6 6
187 181 193 210 225 179 194 200 195 146 128 124 119 104 87 68 56 44 60 72 65 61 44 29 21 357 13 8 14 19 14 21 31 359 35 29 13 14 12 7 360 356 354
172 185 211 210 219 188 206 192 183 174 148 143 141 133 124 106 70 87 76 49 70 60 55 39 49 14 26 19 21 29 34 37 34 39 41 31 14 16 1 360 350 354 351